[[{"header":{"parameterUnit":"m.s-1","parameterCategory":1,"la1":30.2992,"la2":30.254,"lo1":-89.0895,"lo2":-89.0443,"dy":0.0025,"dx":0.0025,"nx":19,"ny":19,"refTime":"2026-05-05T21:00:00:Z","depth":0,"parameterNumber":2,"parameterNumberName":"U-component_of_WINDS"},"data":[0,0,0,1.9052,1.9054,1.917,1.9171,1.9316,1.9317,0,0,0,0,0,0,0,0,0,0,0,1.9012,1.9013,1.9052,1.9055,1.917,1.9171,1.9316,1.9317,0,0,0,0,0,0,0,0,0,0,0,1.9012,1.9013,1.9014,1.9055,1.917,1.9171,1.9315,1.923,0,0,0,0,0,0,0,0,0,0,1.9118,1.9076,1.9013,1.9014,1.9056,1.917,1.9171,1.9226,1.9235,1.9261,0,1.928,0,1.9301,1.9326,1.9327,0,0,0,1.9059,1.9068,1.9103,1.9014,1.9057,1.917,1.9119,1.9231,1.9242,1.9273,1.9282,1.9288,1.9303,1.9327,1.9328,1.9456,1.9456,0,0,1.9053,1.9031,1.9096,1.911,1.9088,1.9116,1.9123,1.9238,1.9247,1.9282,1.9291,1.9305,1.9328,1.9329,1.9455,1.9456,0,0,0,1.9031,1.9026,1.906,1.9104,1.9125,1.9119,1.9127,1.9242,1.9254,1.9293,1.9307,1.9329,1.9331,1.9455,1.9455,1.9452,0,0,0,1.9028,1.9014,1.9057,1.9044,1.9122,1.9184,1.9128,1.9246,1.926,1.9306,1.9329,1.9332,1.9454,1.9455,1.9452,1.9455,0,0,0,1.9007,1.9012,1.9026,1.9043,1.9092,1.9183,1.9202,1.9249,1.9268,1.9327,1.9332,1.9454,1.9455,1.9451,1.9454,1.9483,0,0,0,1.8979,1.9022,1.9026,1.908,1.9091,1.9179,1.9201,1.9269,1.9319,1.933,1.9454,1.9455,1.9451,1.9453,1.9482,1.9504,1.951,0,0,1.9022,1.9026,1.9061,1.9067,1.9149,1.9163,1.9246,1.9313,1.934,1.9416,1.942,1.9452,1.9454,1.9483,1.9554,1.9559,0,0,0,1.9067,1.9091,1.9118,1.9163,1.9214,1.926,1.9316,1.9342,1.9408,1.9373,1.9471,1.9473,1.9491,1.9502,1.9506,1.9524,1.9459,1.9459,1.9459,1.9096,1.9127,1.9186,1.9231,1.9276,1.9334,1.9374,1.9419,1.9438,1.9461,1.9483,1.9523,1.9535,1.9539,1.9557,1.9497,1.9497,1.9497,1.9497,1.9163,1.9203,1.9227,1.9292,1.9326,1.9383,1.9443,1.9454,1.9514,1.9507,1.9525,1.9515,1.9543,1.9561,1.9497,1.9497,1.9497,1.9497,1.9497,1.9186,1.9211,1.924,1.931,1.9362,1.9407,1.9464,1.9493,1.9521,1.9538,1.9567,1.9567,1.9572,1.9549,1.955,1.955,1.955,1.955,1.955,1.9199,1.9232,1.9274,1.9334,1.9368,1.9417,1.9478,1.9514,1.9561,1.9578,1.9578,1.9596,1.9539,1.9525,1.9552,1.9552,1.9552,1.9551,1.9551,1.9255,1.9247,1.9313,1.9347,1.9421,1.9472,1.9508,1.9579,1.9612,1.964,1.9655,1.9607,1.9615,1.9612,1.9601,1.9646,1.9646,1.9646,1.9646,1.9275,1.9282,1.9357,1.941,1.9466,1.9506,1.9583,1.9632,1.9682,1.9706,1.9704,1.9691,1.9686,1.9697,1.9692,1.9682,1.9747,1.9748,1.9748,1.9313,1.9327,1.9385,1.9431,1.9492,1.9544,1.9618,1.9682,1.9737,1.9752,1.9726,1.9722,1.9701,1.9692,1.9706,1.9698,1.968,0,0]},{"header":{"parameterUnit":"m.s-1","parameterCategory":1,"la1":30.2992,"la2":30.254,"lo1":-89.0895,"lo2":-89.0443,"dy":0.0025,"dx":0.0025,"nx":19,"ny":19,"refTime":"2026-05-05T21:00:00:Z","depth":0,"parameterNumber":3,"parameterNumberName":"V-component_of_WINDS"},"data":[0,0,0,3.0749,3.0751,3.087,3.0871,3.1023,3.1025,0,0,0,0,0,0,0,0,0,0,0,3.0715,3.0716,3.0748,3.0751,3.087,3.0871,3.1023,3.1025,0,0,0,0,0,0,0,0,0,0,0,3.0714,3.0715,3.0717,3.0752,3.087,3.0871,3.1023,3.0933,0,0,0,0,0,0,0,0,0,0,3.0817,3.0787,3.0715,3.0717,3.0753,3.087,3.0871,3.0928,3.0938,3.097,0,3.0999,0,3.1015,3.1035,3.1036,0,0,0,3.075,3.0779,3.081,3.0717,3.0754,3.087,3.0816,3.0934,3.0945,3.0983,3.1002,3.1007,3.1017,3.1036,3.1037,3.1226,3.1227,0,0,3.0744,3.0736,3.0802,3.0817,3.08,3.0812,3.082,3.0941,3.096,3.1002,3.1011,3.102,3.1037,3.1038,3.1225,3.1226,0,0,0,3.0726,3.0732,3.076,3.0811,3.0832,3.0816,3.0825,3.0954,3.0964,3.1012,3.1021,3.1038,3.104,3.1224,3.1225,3.1264,0,0,0,3.0722,3.0721,3.0757,3.0754,3.083,3.0895,3.0835,3.0956,3.097,3.1021,3.1038,3.1041,3.1223,3.1225,3.1261,3.1283,0,0,0,3.0706,3.0719,3.0737,3.0753,3.0804,3.0893,3.091,3.0959,3.0975,3.1036,3.1042,3.1222,3.1224,3.1258,3.1278,3.133,0,0,0,3.0688,3.077,3.0738,3.0833,3.0803,3.0917,3.0909,3.0994,3.1051,3.1039,3.1223,3.1225,3.1257,3.1275,3.1327,3.1371,3.1389,0,0,3.0787,3.0781,3.0838,3.0813,3.093,3.0899,3.1022,3.1081,3.1093,3.1181,3.1185,3.1262,3.1278,3.1329,3.1496,3.151,0,0,0,3.0867,3.0907,3.094,3.0994,3.1041,3.1083,3.1124,3.1146,3.122,3.1137,3.1295,3.1305,3.1335,3.1357,3.1369,3.1395,3.1235,3.1235,3.1235,3.0995,3.1007,3.1101,3.1128,3.1181,3.1222,3.1265,3.1302,3.1298,3.1335,3.1361,3.1461,3.1486,3.1495,3.1522,3.1386,3.1386,3.1387,3.1387,3.114,3.1199,3.1193,3.1283,3.1295,3.137,3.1413,3.1408,3.1479,3.1442,3.147,3.1427,3.151,3.1535,3.139,3.1389,3.1389,3.1389,3.1388,3.1224,3.1254,3.128,3.136,3.142,3.1444,3.1513,3.1522,3.153,3.1557,3.1585,3.1584,3.1584,3.157,3.1571,3.1571,3.1571,3.1572,3.1572,3.13,3.1328,3.1385,3.1444,3.1479,3.1528,3.1571,3.1607,3.1648,3.1649,3.1649,3.1641,3.1517,3.1484,3.1577,3.1576,3.1576,3.1575,3.1575,3.144,3.141,3.1498,3.1534,3.1603,3.1662,3.1673,3.1745,3.1776,3.1809,3.1796,3.1703,3.1698,3.1688,3.1661,3.1794,3.1794,3.1794,3.1794,3.1509,3.1508,3.1601,3.1658,3.1715,3.1735,3.1833,3.1868,3.19,3.1919,3.1902,3.1868,3.1857,3.1858,3.1844,3.1819,3.199,3.199,3.199,3.1595,3.16,3.1683,3.1714,3.1769,3.1816,3.1909,3.1974,3.2003,3.1998,3.1935,3.1926,3.1871,3.1853,3.1844,3.1823,3.1778,0,0]}]]